This demonstration page uses our WeatherBlox Daily Observations layout. Learn more.

Left ArrowRight Arrow

38.20091, -84.87328

Hourly Observations for July 12, 2017

Temp ( °F °C ) Dew Point ( °F °C ) Humidity (%) Winds ( mph kmh ) Pressure ( in mb ) Visibility ( mi km ) Precip ( " mm )
12:53 am 00:53 Clear 76 24.4 70 21.1 82 82 SW 5 7 30.03 1017 10 16 0.00 0.00
1:53 am 01:53 Clear 74 23.3 68 20 82 82 S 3 6 30.04 1017 10 16 0.00 0.00
2:53 am 02:53 Clear 72 22.2 67 19.4 84 84 S 3 6 30.04 1017 10 16 0.00 0.00
3:53 am 03:53 Clear 70 21.1 66 18.9 87 87 Calm 30.02 1017 10 16 0.00 0.00
4:53 am 04:53 Clear 68 20 65 18.3 90 90 SSW 3 6 30.02 1017 9 14 0.00 0.00
5:53 am 05:53 Clear 70 21.1 66 18.9 87 87 Calm 30.05 1018 10 16 0.00 0.00
6:53 am 06:53 Sunny 69 20.6 65 18.3 87 87 Calm 30.06 1018 7 11 0.00 0.00
7:53 am 07:53 Sunny 72 22.2 68 20 87 87 SSW 7 11 30.06 1018 10 16 0.00 0.00
8:53 am 08:53 Sunny 78 25.6 67 19.4 69 69 SW 8 13 30.07 1018 10 16 0.00 0.00
9:53 am 09:53 Sunny 82 27.8 68 20 63 63 SSW 7 11 30.07 1018 10 16 0.00 0.00
10:53 am 10:53 Sunny 84 28.9 68 20 59 59 VRB 6 9 30.07 1018 10 16 0.00 0.00
11:53 am 11:53 Sunny 87 30.6 69 20.6 55 55 SSW 8 13 30.08 1019 10 16 0.00 0.00
12:53 pm 12:53 Sunny 88 31.1 69 20.6 54 54 SW 8 13 30.08 1019 10 16 0.00 0.00
1:53 pm 13:53 Mostly Cloudy 88 31.1 72 22.2 59 59 WSW 9 15 30.06 1018 10 16 0.00 0.00
2:53 pm 14:53 Mostly Sunny 90 32.2 73 22.8 58 58 SW 9 15 30.05 1018 10 16 0.00 0.00
3:53 pm 15:53 Sunny 91 32.8 73 22.8 56 56 SSW 14 22 30.04 1017 10 16 0.00 0.00
4:53 pm 16:53 Partly Cloudy 89 31.7 71 21.7 55 55 SSW 14 22 30.02 1017 10 16 0.00 0.00
5:53 pm 17:53 Partly Cloudy 88 31.1 71 21.7 57 57 SW 10 17 30.03 1017 10 16 0.00 0.00
6:53 pm 18:53 Sunny 89 31.7 71 21.7 55 55 SW 10 17 30.01 1016 10 16 0.00 0.00
7:53 pm 19:53 Sunny 87 30.6 72 22.2 61 61 SSW 8 13 30.01 1016 10 16 0.00 0.00
8:53 pm 20:53 Sunny 84 28.9 72 22.2 67 67 S 7 11 30.01 1016 10 16 0.00 0.00
9:53 pm 21:53 Clear 81 27.2 72 22.2 74 74 SW 5 7 30.03 1017 10 16 0.00 0.00
10:53 pm 22:53 Clear 81 27.2 71 21.7 72 72 SW 8 13 30.02 1017 10 16 0.00 0.00
11:53 pm 23:53 Clear 79 26.1 71 21.7 77 77 Calm 30.03 1017 10 16 0.00 0.00

Powered by AerisWeather